N4AN Weather Reports


time (UTC)temp
C
wind
direction
speed
KPH
gust
KPH
rain 1hr
cm
rain 24hr
cm
rain mn
cm
humidity
%
barometer
mb
20260508033353 28 89 4.8 0.0 0.00 0.00 0.00 76 1009.1
20260508032853 28 74 6.4 0.0 0.00 0.00 0.00 76 1009.2
20260508032352 27 86 4.8 0.0 0.00 0.00 0.00 77 1009.2
20260508032021 27 70 3.2 0.0 0.00 0.00 0.00 76 1009.2
20260508031852 27 70 3.2 0.0 0.00 0.00 0.00 76 1009.2
20260508031352 27 61 6.4 0.0 0.00 0.00 0.00 76 1009.1
20260508030835 27 89 6.4 0.0 0.00 0.00 0.00 76 1009.2
20260508030335 27 59 3.2 0.0 0.00 0.00 0.00 76 1009.2
20260508025832 27 89 8.0 0.0 0.00 0.00 0.00 76 1009.1
20260508025332 27 72 8.0 0.0 0.00 0.00 0.00 75 1009.0
20260508025005 27 98 4.8 0.0 0.00 0.00 0.00 75 1009.2
20260508024832 27 98 4.8 0.0 0.00 0.00 0.00 75 1009.2
20260508024327 27 8 3.2 0.0 0.00 0.00 0.00 75 1009.1
20260508023826 27 86 8.0 0.0 0.00 0.00 0.00 75 1009.0
20260508023325 27 28 4.8 0.0 0.00 0.00 0.00 75 1009.0
20260508022825 27 89 4.8 0.0 0.00 0.00 0.00 75 1009.0
20260508021822 27 15 4.8 0.0 0.00 0.00 0.00 74 1008.9
20260508021316 27 96 9.7 0.0 0.00 0.00 0.00 73 1008.8
20260508020816 27 286 1.6 0.0 0.00 0.00 0.00 73 1008.8
20260508020314 27 84 8.0 0.0 0.00 0.00 0.00 73 1008.8
20260508015813 28 11 3.2 0.0 0.00 0.00 0.00 74 1008.8
20260508015312 28 81 6.4 0.0 0.00 0.00 0.00 73 1008.8
20260508014812 28 65 8.0 0.0 0.00 0.00 0.00 73 1008.8
20260508014312 28 20 1.6 0.0 0.00 0.00 0.00 73 1008.8
20260508013812 28 88 9.7 0.0 0.00 0.00 0.00 73 1008.8
20260508013311 28 11 3.2 0.0 0.00 0.00 0.00 73 1008.8
20260508012811 28 46 4.8 0.0 0.00 0.00 0.00 72 1008.8
20260508012311 28 336 4.8 0.0 0.00 0.00 0.00 72 1008.8
20260508011815 28 8 1.6 0.0 0.00 0.00 0.00 72 1008.7
20260508011310 28 70 12.9 0.0 0.00 0.00 0.00 72 1008.7
20260508010810 28 56 4.8 0.0 0.00 0.00 0.00 71 1008.7
20260508010309 28 356 6.4 0.0 0.00 0.00 0.00 71 1008.6
20260508005809 28 20 4.8 0.0 0.00 0.00 0.00 72 1008.6
20260508005308 28 28 3.2 0.0 0.00 0.00 0.00 72 1008.4
20260508004808 28 6 1.6 0.0 0.00 0.00 0.00 73 1008.4
20260508004308 28 20 4.8 0.0 0.00 0.00 0.00 73 1008.4
20260508003808 28 46 6.4 0.0 0.00 0.00 0.00 73 1008.5
20260508003307 28 30 6.4 0.0 0.00 0.00 0.00 73 1008.7
20260508002807 28 56 4.8 0.0 0.00 0.00 0.00 73 1008.5
20260508002307 28 32 6.4 0.0 0.00 0.00 0.00 73 1008.4
20260508001806 28 25 4.8 0.0 0.00 0.00 0.00 74 1008.4
20260508001306 28 13 4.8 0.0 0.00 0.00 0.00 73 1008.4
20260508000806 28 348 11.3 0.0 0.00 0.00 0.00 73 1008.4
20260508000305 28 46 3.2 0.0 0.00 0.00 0.00 73 1008.3
20260507235802 28 84 9.7 0.0 0.00 0.00 0.00 73 1008.3
20260507235306 28 84 8.0 0.0 0.00 0.00 0.00 72 1008.3
20260507234800 28 33 6.4 0.0 0.00 0.00 0.00 72 1008.4
20260507233759 28 89 11.3 0.0 0.00 0.00 0.00 71 1008.2
20260507233258 28 74 4.8 0.0 0.00 0.00 0.00 71 1008.2
20260507232758 28 105 6.4 0.0 0.00 0.00 0.00 70 1008.2
20260507232258 28 9 8.0 0.0 0.00 0.00 0.00 70 1008.2
20260507231757 29 56 4.8 0.0 0.00 0.00 0.00 69 1008.0
20260507231257 30 4 6.4 0.0 0.00 0.00 0.00 67 1008.0
20260507230756 29 269 8.0 0.0 0.00 0.00 0.00 68 1008.0
20260507230254 29 274 8.0 0.0 0.00 0.00 0.00 68 1008.1
20260507225754 29 63 4.8 0.0 0.00 0.00 0.00 69 1008.0
20260507225254 29 39 1.6 0.0 0.00 0.00 0.00 69 1008.1
20260507224753 29 58 9.7 0.0 0.00 0.00 0.00 69 1008.1
20260507224252 29 46 6.4 0.0 0.00 0.00 0.00 69 1008.1
20260507223752 29 81 11.3 0.0 0.00 0.00 0.00 69 1008.1
20260507223251 29 351 6.4 0.0 0.00 0.00 0.00 69 1008.1
20260507222748 29 93 8.0 0.0 0.00 0.00 0.00 69 1007.9
20260507222246 29 63 3.2 0.0 0.00 0.00 0.00 69 1007.9
20260507221739 30 86 8.0 0.0 0.00 0.00 0.00 69 1008.0
20260507221223 30 84 6.4 0.0 0.00 0.00 0.00 69 1008.0
20260507220724 30 46 4.8 0.0 0.00 0.00 0.00 69 1007.9
20260507215704 29 6 6.4 0.0 0.00 0.00 0.00 69 1007.9
20260507215154 29 86 3.2 0.0 0.00 0.00 0.00 69 1007.8
20260507214654 29 70 6.4 0.0 0.00 0.00 0.00 70 1007.9
20260507214154 30 40 3.2 0.0 0.00 0.00 0.00 69 1007.8
20260507213653 30 1 6.4 0.0 0.00 0.00 0.00 69 1007.8
20260507213153 30 70 9.7 0.0 0.00 0.00 0.00 69 1007.7
20260507212653 30 89 14.5 0.0 0.00 0.00 0.00 68 1007.7
20260507212153 30 84 6.4 0.0 0.00 0.00 0.00 69 1007.8
20260507211652 30 77 4.8 0.0 0.00 0.00 0.00 67 1007.7
20260507211152 30 76 8.0 0.0 0.00 0.00 0.00 69 1007.9
20260507205648 30 77 4.8 0.0 0.00 0.00 0.00 68 1008.0
20260507205147 30 4 8.0 0.0 0.00 0.00 0.00 66 1008.0
20260507204643 30 33 4.8 0.0 0.00 0.00 0.00 66 1008.0
20260507204143 31 350 6.4 0.0 0.00 0.00 0.00 65 1008.0
20260507203642 31 310 9.7 0.0 0.00 0.00 0.00 65 1008.0
20260507203147 31 51 4.8 0.0 0.00 0.00 0.00 66 1008.1
20260507202641 31 15 4.8 0.0 0.00 0.00 0.00 66 1008.1
20260507202141 31 103 6.4 0.0 0.00 0.00 0.00 66 1008.1
20260507201640 31 354 9.7 0.0 0.00 0.00 0.00 67 1008.2
20260507201140 31 75 4.8 0.0 0.00 0.00 0.00 66 1008.2
20260507200640 31 14 9.7 0.0 0.00 0.00 0.00 66 1008.3
20260507200140 31 135 4.8 0.0 0.00 0.00 0.00 65 1008.4
20260507195639 31 86 6.4 0.0 0.00 0.00 0.00 64 1008.4
20260507195139 31 348 4.8 0.0 0.00 0.00 0.00 63 1008.4
20260507194638 31 250 8.0 0.0 0.00 0.00 0.00 63 1008.6
20260507194138 31 15 9.7 0.0 0.00 0.00 0.00 63 1008.5
20260507193638 31 354 6.4 0.0 0.00 0.00 0.00 64 1008.6
20260507193137 31 88 11.3 0.0 0.00 0.00 0.00 65 1008.7
20260507192637 31 6 6.4 0.0 0.00 0.00 0.00 64 1008.7
20260507192137 31 23 4.8 0.0 0.00 0.00 0.00 63 1008.8
20260507191637 31 18 8.0 0.0 0.00 0.00 0.00 63 1008.9
20260507191136 31 28 3.2 0.0 0.00 0.00 0.00 61 1008.9
20260507190636 32 46 3.2 0.0 0.00 0.00 0.00 62 1008.9
20260507190136 32 11 8.0 0.0 0.00 0.00 0.00 62 1009.0
20260507185635 31 8 9.7 0.0 0.00 0.00 0.00 64 1008.9
20260507185135 31 63 9.7 0.0 0.00 0.00 0.00 65 1009.0
20260507184635 31 56 4.8 0.0 0.00 0.00 0.00 64 1009.2
20260507184135 31 28 6.4 0.0 0.00 0.00 0.00 65 1009.4
20260507183634 31 331 11.3 0.0 0.00 0.00 0.00 65 1009.4
20260507183134 32 334 11.3 0.0 0.00 0.00 0.00 65 1009.5
20260507182634 31 1 6.4 0.0 0.00 0.00 0.00 65 1009.6
20260507181633 31 8 8.0 0.0 0.00 0.00 0.00 66 1009.8
20260507181133 31 13 11.3 0.0 0.00 0.00 0.00 67 1009.9
20260507180629 31 9 3.2 0.0 0.00 0.00 0.00 67 1009.8
20260507180129 31 25 3.2 0.0 0.00 0.00 0.00 67 1009.9
20260507175628 31 72 8.0 0.0 0.00 0.00 0.00 67 1010.0
20260507175127 31 135 3.2 0.0 0.00 0.00 0.00 66 1010.0
20260507174630 31 1 8.0 0.0 0.00 0.00 0.00 66 1010.1
20260507174127 31 46 1.6 0.0 0.00 0.00 0.00 67 1010.2
20260507173626 31 15 6.4 0.0 0.00 0.00 0.00 67 1010.2
20260507173126 31 6 9.7 0.0 0.00 0.00 0.00 66 1010.4
20260507172626 31 28 3.2 0.0 0.00 0.00 0.00 67 1010.4
20260507172126 31 355 4.8 0.0 0.00 0.00 0.00 66 1010.4
20260507171625 31 56 6.4 0.0 0.00 0.00 0.00 67 1010.4
20260507171125 31 51 4.8 0.0 0.00 0.00 0.00 67 1010.5
20260507170625 31 108 6.4 0.0 0.00 0.00 0.00 67 1010.4
20260507170124 31 157 3.2 0.0 0.00 0.00 0.00 66 1010.5
20260507165650 31 89 6.4 0.0 0.00 0.00 0.00 66 1010.6
20260507164121 31 13 4.8 0.0 0.00 0.00 0.00 67 1010.6
20260507163620 31 1 4.8 0.0 0.00 0.00 0.00 66 1010.7
20260507163119 31 6 8.0 0.0 0.00 0.00 0.00 65 1010.7
20260507162619 31 311 6.4 0.0 0.00 0.00 0.00 65 1010.7
20260507162119 31 147 6.4 0.0 0.00 0.00 0.00 65 1010.8
20260507161618 31 46 4.8 0.0 0.00 0.00 0.00 65 1010.8
20260507161117 31 89 6.4 0.0 0.00 0.00 0.00 66 1010.8
20260507160617 31 83 6.4 0.0 0.00 0.00 0.00 66 1011.0
20260507160117 31 81 6.4 0.0 0.00 0.00 0.00 66 1011.0
20260507155617 30 89 6.4 0.0 0.00 0.00 0.00 66 1010.9
20260507155114 30 269 1.6 0.0 0.00 0.00 0.00 66 1011.0
20260507154613 30 88 8.0 0.0 0.00 0.00 0.00 66 1011.0
20260507153612 30 334 8.0 0.0 0.00 0.00 0.00 66 1011.2
20260507153112 30 15 1.6 0.0 0.00 0.00 0.00 67 1011.2
20260507152612 30 18 3.2 0.0 0.00 0.00 0.00 67 1011.2
20260507152112 30 28 3.2 0.0 0.00 0.00 0.00 67 1011.2
20260507151111 30 35 4.8 0.0 0.00 0.00 0.00 67 1011.3
20260507150044 30 63 4.8 0.0 0.00 0.00 0.00 67 1011.3
20260507145544 30 76 3.2 0.0 0.00 0.00 0.00 67 1011.2
20260507145022 30 51 6.4 0.0 0.00 0.00 0.00 68 1011.1
20260507144522 30 35 6.4 0.0 0.00 0.00 0.00 68 1011.1
20260507144021 30 46 3.2 0.0 0.00 0.00 0.00 69 1011.1
20260507143520 30 28 4.8 0.0 0.00 0.00 0.00 69 1011.1
20260507143020 30 89 3.2 0.0 0.00 0.00 0.00 69 1011.1
20260507142517 30 56 1.6 0.0 0.00 0.00 0.00 69 1011.0
20260507142015 30 100 3.2 0.0 0.00 0.00 0.00 69 1011.1
20260507141511 30 63 4.8 0.0 0.00 0.00 0.00 69 1011.2
20260507141012 30 18 1.6 0.0 0.00 0.00 0.00 69 1011.3
20260507140704 29 321 3.2 0.0 0.00 0.00 0.00 69 1011.3
20260507140511 29 321 3.2 0.0 0.00 0.00 0.00 69 1011.3
20260507140010 29 121 1.6 0.0 0.00 0.00 0.00 70 1011.2
20260507135509 29 89 1.6 0.0 0.00 0.00 0.00 70 1011.1
20260507135007 29 39 3.2 0.0 0.00 0.00 0.00 70 1011.2
20260507134507 29 145 4.8 0.0 0.00 0.00 0.00 70 1011.2
20260507133505 29 178 4.8 0.0 0.00 0.00 0.00 71 1011.2
20260507133005 29 161 3.2 0.0 0.00 0.00 0.00 72 1011.3
20260507132504 28 23 1.6 0.0 0.00 0.00 0.00 72 1011.2
20260507132001 28 56 3.2 0.0 0.00 0.00 0.00 72 1011.2
20260507131501 28 82 1.6 0.0 0.00 0.00 0.00 72 1011.3
20260507131000 28 28 1.6 0.0 0.00 0.00 0.00 73 1011.2
20260507130500 28 63 0.0 0.0 0.00 0.00 0.00 73 1011.2
20260507130205 28 193 9.7 0.0 0.00 0.00 0.00 73 1011.3
20260507130031 28 193 9.7 0.0 0.00 0.00 0.00 73 1011.3
20260507130000 28 193 9.7 0.0 0.00 0.00 0.00 73 1011.3
20260507125500 28 269 3.2 0.0 0.00 0.00 0.00 73 1011.2
20260507124959 28 328 6.4 0.0 0.00 0.00 0.00 73 1011.2
20260507124459 28 169 4.8 0.0 0.00 0.00 0.00 73 1011.2
20260507123959 28 188 4.8 0.0 0.00 0.00 0.00 74 1011.3
20260507123459 28 135 3.2 0.0 0.00 0.00 0.00 74 1011.2
20260507122954 27 79 4.8 0.0 0.00 0.00 0.00 75 1011.2
20260507122447 27 72 3.2 0.0 0.00 0.00 0.00 75 1011.1
20260507121947 27 72 4.8 0.0 0.00 0.00 0.00 75 1011.0
20260507121445 27 178 6.4 0.0 0.00 0.00 0.00 75 1011.0
20260507120945 27 187 1.6 0.0 0.00 0.00 0.00 76 1011.0
20260507120444 27 46 4.8 0.0 0.00 0.00 0.00 77 1010.8
20260507115938 27 117 1.6 0.0 0.00 0.00 0.00 77 1010.6
20260507115438 27 84 1.6 0.0 0.00 0.00 0.00 78 1010.5
20260507114937 26 178 6.4 0.0 0.00 0.00 0.00 78 1010.5
20260507114437 26 166 4.8 0.0 0.00 0.00 0.00 78 1010.5
20260507113936 26 1 4.8 0.0 0.00 0.00 0.00 78 1010.5
20260507113632 26 18 3.2 0.0 0.00 0.00 0.00 79 1010.4
20260507113436 26 18 3.2 0.0 0.00 0.00 0.00 79 1010.4
20260507112935 26 6 4.8 0.0 0.00 0.00 0.00 79 1010.3
20260507112435 26 125 9.7 0.0 0.00 0.00 0.00 79 1010.2
20260507111934 26 93 9.7 0.0 0.00 0.00 0.00 79 1010.2
20260507111430 26 89 4.8 0.0 0.00 0.00 0.00 79 1010.2
20260507110930 26 89 9.7 0.0 0.00 0.00 0.00 79 1010.2
20260507110421 26 76 3.2 0.0 0.00 0.00 0.00 79 1010.2
20260507105921 26 35 3.2 0.0 0.00 0.00 0.00 79 1010.0
20260507105417 26 89 6.4 0.0 0.00 0.00 0.00 79 1009.8
20260507104916 26 84 8.0 0.0 0.00 0.00 0.00 79 1009.7
20260507104455 26 53 4.8 0.0 0.00 0.00 0.00 80 1009.5
20260507104416 26 89 4.8 0.0 0.00 0.00 0.00 80 1009.7
20260507103915 26 53 4.8 0.0 0.00 0.00 0.00 80 1009.5
20260507103415 26 84 11.3 0.0 0.00 0.00 0.00 79 1009.5
20260507103009 26 96 8.0 0.0 0.00 0.00 0.00 79 1009.2
20260507102914 26 102 8.0 0.0 0.00 0.00 0.00 79 1009.5
20260507102414 26 89 4.8 0.0 0.00 0.00 0.00 79 1009.2
20260507101911 26 96 8.0 0.0 0.00 0.00 0.00 79 1009.2
20260507101840 26 84 6.4 0.0 0.00 0.00 0.00 78 1009.1
20260507101409 26 89 6.4 0.0 0.00 0.00 0.00 79 1009.0
20260507100908 26 84 6.4 0.0 0.00 0.00 0.00 78 1009.1
20260507100456 26 89 8.0 0.0 0.00 0.00 0.00 79 1009.1
20260507100406 26 89 6.4 0.0 0.00 0.00 0.00 78 1009.0
20260507095906 26 89 8.0 0.0 0.00 0.00 0.00 79 1009.1
20260507095406 26 89 3.2 0.0 0.00 0.00 0.00 78 1009.1
20260507094905 26 86 4.8 0.0 0.00 0.00 0.00 78 1009.0
20260507093748 26 89 8.0 0.0 0.00 0.00 0.00 78 1008.8
20260507093148 26 89 8.0 0.0 0.00 0.00 0.00 78 1008.8
20260507092603 26 89 3.2 0.0 0.00 0.00 0.00 77 1008.9
20260507092103 26 98 1.6 0.0 0.00 0.00 0.00 77 1008.9
20260507091602 26 74 6.4 0.0 0.00 0.00 0.00 77 1008.9
20260507091401 26 68 3.2 0.0 0.00 0.00 0.00 77 1008.9
20260507091102 26 68 3.2 0.0 0.00 0.00 0.00 77 1008.9
20260507084737 26 15 4.8 0.0 0.00 0.00 0.00 77 1008.8
20260507084234 26 53 4.8 0.0 0.00 0.00 0.00 76 1008.7
20260507083734 26 9 4.8 0.0 0.00 0.00 0.00 76 1008.8
20260507083232 26 76 12.9 0.0 0.00 0.00 0.00 76 1008.9
20260507082727 26 8 8.0 0.0 0.00 0.00 0.00 76 1008.9
20260507082219 26 28 1.6 0.0 0.00 0.00 0.00 76 1008.8
20260507081717 26 83 4.8 0.0 0.00 0.00 0.00 76 1008.8
20260507081213 26 1 4.8 0.0 0.00 0.00 0.00 75 1008.9
20260507080713 26 76 1.6 0.0 0.00 0.00 0.00 75 1008.9
20260507080213 26 11 4.8 0.0 0.00 0.00 0.00 75 1008.9
20260507075713 26 1 4.8 0.0 0.00 0.00 0.00 74 1009.0
20260507075212 26 98 6.4 0.0 0.00 0.00 0.00 74 1008.9
20260507074740 26 89 4.8 0.0 0.00 0.00 0.00 74 1008.9
20260507074212 26 89 11.3 0.0 0.00 0.00 0.00 74 1009.1
20260507073703 26 15 3.2 0.0 0.00 0.00 0.00 73 1009.2
20260507073201 26 81 1.6 0.0 0.00 0.00 0.00 73 1009.4
20260507072701 26 77 3.2 0.0 0.00 0.00 0.00 73 1009.3
20260507072555 26 223 3.2 0.0 0.00 0.00 0.00 73 1009.1
20260507072157 26 223 3.2 0.0 0.00 0.00 0.00 73 1009.1
20260507071657 26 354 3.2 0.0 0.00 0.00 0.00 74 1009.1
20260507071157 26 161 3.2 0.0 0.00 0.00 0.00 73 1009.2
20260507071005 26 20 3.2 0.0 0.00 0.00 0.00 73 1009.2
20260507070655 26 20 3.2 0.0 0.00 0.00 0.00 73 1009.2
20260507070626 27 4 6.4 0.0 0.00 0.00 0.00 72 1009.3
20260507070155 27 4 6.4 0.0 0.00 0.00 0.00 72 1009.3
20260507065650 26 340 3.2 0.0 0.00 0.00 0.00 71 1009.2
20260507065150 26 23 1.6 0.0 0.00 0.00 0.00 71 1009.3
20260507064645 26 1 6.4 0.0 0.00 0.00 0.00 71 1009.3
20260507064143 26 189 4.8 0.0 0.00 0.00 0.00 72 1009.6
20260507063641 26 95 17.7 0.0 0.00 0.00 0.00 71 1009.6
20260507063440 26 89 6.4 0.0 0.00 0.00 0.00 72 1009.6
20260507063141 26 28 1.6 0.0 0.00 0.00 0.00 72 1009.5
20260507062639 26 89 6.4 0.0 0.00 0.00 0.00 72 1009.6
20260507062553 26 204 6.4 0.0 0.00 0.00 0.00 71 1009.6
20260507062138 26 204 6.4 0.0 0.00 0.00 0.00 71 1009.6
20260507061638 26 202 8.0 0.0 0.00 0.00 0.00 72 1009.7
20260507061137 26 98 12.9 0.0 0.00 0.00 0.00 73 1009.8
20260507060637 26 118 19.3 0.0 0.00 0.00 0.00 73 1009.9
20260507060446 26 108 14.5 0.0 0.00 0.00 0.00 73 1010.0
20260507060135 26 108 14.5 0.0 0.00 0.00 0.00 73 1010.0
20260507055830 26 86 9.7 0.0 0.00 0.00 0.00 73 1010.1
20260507055635 26 86 9.7 0.0 0.00 0.00 0.00 73 1010.1
20260507055249 26 154 12.9 0.0 0.00 0.00 0.00 73 1010.2
20260507055134 26 154 12.9 0.0 0.00 0.00 0.00 73 1010.2
20260507054809 26 122 12.9 0.0 0.00 0.00 0.00 73 1010.3
20260507054634 26 122 12.9 0.0 0.00 0.00 0.00 73 1010.3
20260507054226 26 269 4.8 0.0 0.00 0.00 0.00 73 1010.3
20260507054133 26 269 4.8 0.0 0.00 0.00 0.00 73 1010.3
20260507053631 26 117 6.4 0.0 0.00 0.00 0.00 73 1010.3
20260507053432 26 178 8.0 0.0 0.00 0.00 0.00 73 1010.3
20260507053131 26 178 8.0 0.0 0.00 0.00 0.00 73 1010.3
20260507052625 26 117 11.3 0.0 0.00 0.00 0.00 73 1010.3
20260507051623 26 110 16.1 0.0 0.00 0.00 0.00 72 1010.5
20260507051123 26 259 4.8 0.0 0.00 0.00 0.00 72 1010.5
20260507050623 26 115 19.3 0.0 0.00 0.00 0.00 73 1010.7
20260507050116 25 173 6.4 0.0 0.00 0.00 0.00 73 1010.6
20260507045615 25 105 17.7 0.0 0.00 0.00 0.00 72 1010.7
20260507045115 25 115 20.9 0.0 0.00 0.00 0.00 72 1010.7
20260507044614 25 108 14.5 0.0 0.00 0.00 0.00 72 1010.6
20260507044141 25 107 14.5 0.0 0.00 0.00 0.00 72 1010.6
20260507044110 25 107 14.5 0.0 0.00 0.00 0.00 72 1010.6
20260507043609 25 110 19.3 0.0 0.00 0.00 0.00 73 1010.6
20260507043106 25 113 14.5 0.0 0.00 0.00 0.00 73 1010.6
20260507042636 25 105 19.3 0.0 0.00 0.00 0.00 73 1010.7
20260507042605 25 105 19.3 0.0 0.00 0.00 0.00 73 1010.7
20260507042052 25 118 16.1 0.0 0.00 0.00 0.00 73 1010.8
20260507041717 25 105 17.7 0.0 0.00 0.00 0.00 74 1011.0
20260507040931 25 112 16.1 0.0 0.00 0.00 0.00 73 1010.8
20260507040605 26 113 14.5 0.0 0.00 0.00 0.00 74 1010.8
20260507040431 26 113 14.5 0.0 0.00 0.00 0.00 74 1010.8
20260507040129 26 107 19.3 0.0 0.00 0.00 0.00 74 1010.9
20260507035312 26 108 17.7 0.0 0.00 0.00 0.00 73 1010.7
20260507034810 26 89 3.2 0.0 0.00 0.00 0.00 73 1010.9
20260507034309 26 93 12.9 0.0 0.00 0.00 0.00 73 1011.0